BCS5501 EDDK-LFLL

Flight info

Callsign BCS5501
Flight time 1h 5m
Altitude 34000
Route KUMIK1R/31R KUMIK Y854 BOMBI DCT GIGET DCT ABUKA/N0468F400 DCT KRH DCT NATOR/N0470F390 DCT LUTIX DCT BENOT N869 MILPA
Aircraft A333/H-SDE3GHIJ2J3J5M1RVWXY/LB2D1

Departure

Time 2026-05-04 19:55
Airport Cologne Bonn Airport (EDDK)

Arrival

Time 2026-05-04 21:00
Airport Lyon Saint-Exupéry Airport (LFLL)
Time Latitude Longitude Altitude Speed Heading
2026-05-04 19:34 50.86808 7.13912 259 ft 0 kts 227°
2026-05-04 19:44 50.86817 7.13926 259 ft 2 kts 224°
2026-05-04 19:44 50.86829 7.13944 259 ft 2 kts 223°
2026-05-04 19:44 50.86841 7.13961 259 ft 2 kts 217°
2026-05-04 19:45 50.86855 7.13976 259 ft 2 kts 205°
2026-05-04 19:45 50.86870 7.13984 258 ft 2 kts 176°
2026-05-04 19:45 50.86886 7.13977 257 ft 2 kts 142°
2026-05-04 19:45 50.86891 7.13970 257 ft 0 kts 139°
2026-05-04 19:48 50.86891 7.13971 257 ft 0 kts 139°
2026-05-04 19:48 50.86885 7.13978 257 ft 2 kts 138°
2026-05-04 19:48 50.86859 7.14015 259 ft 9 kts 138°
2026-05-04 19:49 50.86788 7.14112 259 ft 18 kts 146°
2026-05-04 19:49 50.86699 7.14187 262 ft 11 kts 140°
2026-05-04 19:49 50.86650 7.14259 265 ft 10 kts 137°
2026-05-04 19:49 50.86593 7.14340 265 ft 13 kts 137°
2026-05-04 19:50 50.86524 7.14442 268 ft 14 kts 137°
2026-05-04 19:50 50.86453 7.14544 273 ft 14 kts 137°
2026-05-04 19:50 50.86381 7.14648 277 ft 15 kts 137°
2026-05-04 19:50 50.86299 7.14766 281 ft 17 kts 137°
2026-05-04 19:51 50.86209 7.14897 287 ft 18 kts 137°
2026-05-04 19:51 50.86109 7.15042 296 ft 21 kts 137°
2026-05-04 19:51 50.85996 7.15205 299 ft 23 kts 137°
2026-05-04 19:51 50.85877 7.15378 304 ft 23 kts 137°
2026-05-04 19:52 50.85763 7.15543 306 ft 21 kts 137°
2026-05-04 19:52 50.85657 7.15697 310 ft 20 kts 137°
2026-05-04 19:52 50.85558 7.15840 311 ft 19 kts 137°
2026-05-04 19:52 50.85466 7.15974 312 ft 18 kts 138°
2026-05-04 19:53 50.85374 7.16112 315 ft 18 kts 130°
2026-05-04 19:53 50.85336 7.16292 311 ft 18 kts 87°
2026-05-04 19:53 50.85388 7.16459 312 ft 16 kts 39°
2026-05-04 19:53 50.85490 7.16519 311 ft 16 kts
2026-05-04 19:54 50.85592 7.16467 315 ft 15 kts 317°
2026-05-04 19:54 50.85709 7.16297 315 ft 44 kts 318°
2026-05-04 19:54 50.86098 7.15734 303 ft 105 kts 317°
2026-05-04 19:54 50.86781 7.14746 271 ft 159 kts 317°
2026-05-04 19:55 50.87700 7.13430 565 ft 187 kts 318°
2026-05-04 19:55 50.88701 7.12047 1311 ft 195 kts 323°
2026-05-04 19:55 50.90033 7.11318 1828 ft 218 kts
2026-05-04 19:56 50.95604 7.20272 5069 ft 276 kts 67°
2026-05-04 19:57 50.96442 7.23051 5820 ft 282 kts 67°
2026-05-04 19:57 50.97310 7.25870 6634 ft 287 kts 67°
2026-05-04 19:57 50.98201 7.28732 7449 ft 291 kts 66°
2026-05-04 19:57 50.99105 7.31614 8277 ft 294 kts 66°
2026-05-04 19:58 51.00026 7.34543 9144 ft 298 kts 66°
2026-05-04 19:58 51.00958 7.37512 9935 ft 302 kts 67°
2026-05-04 19:58 51.01714 7.40660 10421 ft 312 kts 82°
2026-05-04 19:58 51.01709 7.44160 10710 ft 325 kts 105°
2026-05-04 19:59 51.01106 7.47712 10974 ft 343 kts 111°
2026-05-04 19:59 51.00356 7.51409 11288 ft 359 kts 111°
2026-05-04 19:59 50.99578 7.55226 11825 ft 368 kts 111°
2026-05-04 19:59 50.98794 7.59129 12463 ft 374 kts 111°
2026-05-04 20:00 50.98003 7.63104 13111 ft 380 kts 110°
2026-05-04 20:00 50.97218 7.67072 13821 ft 384 kts 110°
2026-05-04 20:00 50.96416 7.71124 14463 ft 387 kts 110°
2026-05-04 20:00 50.95604 7.75215 15073 ft 391 kts 110°
2026-05-04 20:01 50.94776 7.79346 15680 ft 395 kts 112°
2026-05-04 20:01 50.93656 7.83306 16286 ft 395 kts 122°
2026-05-04 20:01 50.92199 7.87017 16904 ft 397 kts 126°
2026-05-04 20:01 50.90665 7.90679 17497 ft 401 kts 126°
2026-05-04 20:02 50.89107 7.94370 18088 ft 405 kts 126°
2026-05-04 20:02 50.87538 7.98094 18598 ft 408 kts 126°
2026-05-04 20:02 50.85957 8.01851 19083 ft 412 kts 127°
2026-05-04 20:02 50.84259 8.05517 19601 ft 412 kts 134°
2026-05-04 20:03 50.82206 8.08660 20118 ft 411 kts 144°
2026-05-04 20:03 50.79913 8.11355 20636 ft 412 kts 148°
2026-05-04 20:03 50.77512 8.13865 21141 ft 414 kts 150°
2026-05-04 20:03 50.75074 8.16268 21635 ft 416 kts 151°
2026-05-04 20:04 50.72593 8.18668 22126 ft 419 kts 151°
2026-05-04 20:04 50.70101 8.21085 22596 ft 421 kts 151°
2026-05-04 20:04 50.67599 8.23535 23065 ft 424 kts 151°
2026-05-04 20:04 50.65089 8.26018 23524 ft 427 kts 150°
2026-05-04 20:05 50.62574 8.28524 23938 ft 429 kts 150°
2026-05-04 20:05 50.60073 8.31022 24316 ft 432 kts 150°
2026-05-04 20:05 50.57528 8.33568 24715 ft 434 kts 150°
2026-05-04 20:05 50.54984 8.36111 25122 ft 436 kts 150°
2026-05-04 20:06 50.52414 8.38677 25510 ft 438 kts 151°
2026-05-04 20:06 50.49829 8.41253 25864 ft 441 kts 151°
2026-05-04 20:06 50.47244 8.43824 26325 ft 440 kts 151°
2026-05-04 20:06 50.44662 8.46389 26836 ft 439 kts 151°
2026-05-04 20:07 50.42083 8.48948 27375 ft 438 kts 151°
2026-05-04 20:07 50.39517 8.51490 27883 ft 436 kts 151°
2026-05-04 20:07 50.36933 8.53973 28438 ft 433 kts 153°
2026-05-04 20:07 50.34320 8.56281 28991 ft 431 kts 155°
2026-05-04 20:08 50.31685 8.58494 29549 ft 428 kts 156°
2026-05-04 20:08 50.29091 8.60626 30117 ft 425 kts 156°
2026-05-04 20:08 50.26472 8.62770 30588 ft 422 kts 156°
2026-05-04 20:08 50.23877 8.64902 31106 ft 419 kts 156°
2026-05-04 20:09 50.21311 8.67021 31608 ft 416 kts 156°
2026-05-04 20:09 50.18753 8.69142 31925 ft 418 kts 156°
2026-05-04 20:09 50.16158 8.71294 31986 ft 426 kts 156°
2026-05-04 20:10 50.10749 8.75677 31987 ft 442 kts 160°
2026-05-04 20:10 50.04859 8.78505 32007 ft 451 kts 174°
2026-05-04 20:10 50.01729 8.78906 32111 ft 452 kts 182°
2026-05-04 20:11 49.98575 8.78624 32237 ft 455 kts 188°
2026-05-04 20:11 49.95416 8.78073 32483 ft 456 kts 189°
2026-05-04 20:11 49.92270 8.77412 32846 ft 455 kts 190°
2026-05-04 20:11 49.89146 8.76717 33237 ft 453 kts 190°
2026-05-04 20:12 49.86029 8.76020 33641 ft 451 kts 190°
2026-05-04 20:12 49.82919 8.75336 33941 ft 451 kts 190°
2026-05-04 20:12 49.79806 8.74668 34221 ft 451 kts 190°
2026-05-04 20:12 49.76697 8.74015 34489 ft 451 kts 189°
2026-05-04 20:13 49.73586 8.73369 34750 ft 451 kts 189°
2026-05-04 20:13 49.70486 8.72732 34998 ft 451 kts 189°
2026-05-04 20:13 49.67369 8.72098 35001 ft 450 kts 189°
2026-05-04 20:14 49.61158 8.70847 34984 ft 451 kts 189°
2026-05-04 20:14 49.54921 8.69594 34989 ft 452 kts 189°
2026-05-04 20:15 49.48681 8.68343 34992 ft 452 kts 189°
2026-05-04 20:15 49.42478 8.67095 34989 ft 452 kts 189°
2026-05-04 20:16 49.36252 8.65834 34988 ft 451 kts 189°
2026-05-04 20:16 49.30039 8.64579 34985 ft 450 kts 189°
2026-05-04 20:17 49.23823 8.63326 34980 ft 451 kts 189°
2026-05-04 20:17 49.18609 8.62279 34965 ft 451 kts 189°
2026-05-04 20:18 49.12422 8.61039 34974 ft 451 kts 189°
2026-05-04 20:18 49.06192 8.59794 34974 ft 452 kts 189°
2026-05-04 20:19 48.99958 8.58546 34976 ft 451 kts 190°
2026-05-04 20:19 48.93790 8.56818 34979 ft 451 kts 194°
2026-05-04 20:20 48.87655 8.54753 34979 ft 451 kts 194°
2026-05-04 20:20 48.81552 8.52700 34988 ft 452 kts 194°
2026-05-04 20:21 48.75408 8.50692 34983 ft 452 kts 194°
2026-05-04 20:21 48.66173 8.47726 34990 ft 452 kts 194°
2026-05-04 20:22 48.60002 8.45752 34990 ft 452 kts 194°
2026-05-04 20:22 48.53834 8.43784 34991 ft 452 kts 194°
2026-05-04 20:23 48.47674 8.41823 34993 ft 452 kts 194°
2026-05-04 20:23 48.41510 8.39863 34995 ft 452 kts 194°
2026-05-04 20:24 48.35387 8.37922 34995 ft 453 kts 194°
2026-05-04 20:24 48.29221 8.35972 34997 ft 453 kts 194°
2026-05-04 20:25 48.23043 8.34022 35000 ft 454 kts 194°
2026-05-04 20:25 48.16988 8.31434 34996 ft 451 kts 204°
2026-05-04 20:26 48.11500 8.26915 34998 ft 450 kts 212°
2026-05-04 20:26 48.06221 8.21852 35001 ft 451 kts 214°
2026-05-04 20:27 48.00969 8.16711 35002 ft 451 kts 214°
2026-05-04 20:27 47.95702 8.11608 35001 ft 451 kts 213°
2026-05-04 20:28 47.90425 8.06546 34994 ft 450 kts 213°
2026-05-04 20:28 47.85183 8.01542 34996 ft 450 kts 213°
2026-05-04 20:29 47.79905 7.96517 34996 ft 450 kts 213°
2026-05-04 20:29 47.74623 7.91497 34993 ft 450 kts 213°
2026-05-04 20:30 47.69343 7.86491 35002 ft 450 kts 213°
2026-05-04 20:30 47.64064 7.81499 35001 ft 450 kts 213°
2026-05-04 20:31 47.58786 7.76510 34999 ft 449 kts 214°
2026-05-04 20:31 47.53979 7.70625 34970 ft 449 kts 225°
2026-05-04 20:32 47.49601 7.64048 34993 ft 448 kts 225°
2026-05-04 20:32 47.45281 7.57472 34991 ft 448 kts 225°
2026-05-04 20:33 47.40932 7.50862 34996 ft 448 kts 226°
2026-05-04 20:33 47.36584 7.44270 35032 ft 448 kts 226°
2026-05-04 20:34 47.32230 7.37685 35020 ft 447 kts 226°
2026-05-04 20:34 47.27891 7.31136 35023 ft 447 kts 226°
2026-05-04 20:35 47.23540 7.24588 35019 ft 447 kts 226°
2026-05-04 20:35 47.19191 7.18059 35022 ft 447 kts 226°
2026-05-04 20:36 47.14836 7.11537 35014 ft 447 kts 226°
2026-05-04 20:36 47.10478 7.05027 35017 ft 446 kts 226°
2026-05-04 20:37 47.06149 6.98575 34709 ft 442 kts 225°
2026-05-04 20:37 47.04012 6.95398 33910 ft 444 kts 225°
2026-05-04 20:37 47.01812 6.92129 32719 ft 447 kts 225°
2026-05-04 20:38 46.99644 6.88912 31386 ft 450 kts 225°
2026-05-04 20:38 46.97433 6.85634 30173 ft 454 kts 224°
2026-05-04 20:38 46.95202 6.82333 29766 ft 458 kts 224°
2026-05-04 20:38 46.92956 6.79014 29134 ft 458 kts 224°
2026-05-04 20:39 46.90731 6.75729 28672 ft 451 kts 224°
2026-05-04 20:39 46.88534 6.72489 27932 ft 448 kts 224°
2026-05-04 20:39 46.86335 6.69250 27595 ft 447 kts 224°
2026-05-04 20:39 46.84153 6.66040 27128 ft 445 kts 224°
2026-05-04 20:40 46.82036 6.62766 26558 ft 443 kts 228°
2026-05-04 20:40 46.80087 6.59298 26282 ft 440 kts 230°
2026-05-04 20:40 46.78179 6.55808 25874 ft 439 kts 230°
2026-05-04 20:40 46.76288 6.52317 25310 ft 438 kts 230°
2026-05-04 20:41 46.74406 6.48832 24746 ft 435 kts 230°
2026-05-04 20:41 46.72541 6.45377 24158 ft 432 kts 230°
2026-05-04 20:41 46.70684 6.41936 23575 ft 430 kts 230°
2026-05-04 20:41 46.68838 6.38517 22912 ft 428 kts 230°
2026-05-04 20:42 46.67001 6.35120 22323 ft 425 kts 230°
2026-05-04 20:42 46.65178 6.31753 21642 ft 422 kts 230°
2026-05-04 20:42 46.63358 6.28394 20874 ft 421 kts 230°
2026-05-04 20:42 46.61574 6.25105 20602 ft 408 kts 230°
2026-05-04 20:43 46.59851 6.21931 20118 ft 404 kts 230°
2026-05-04 20:43 46.58105 6.18721 19534 ft 406 kts 230°
2026-05-04 20:43 46.56341 6.15480 18543 ft 412 kts 230°
2026-05-04 20:43 46.54579 6.12247 18190 ft 402 kts 230°
2026-05-04 20:44 46.52857 6.09091 17818 ft 397 kts 230°
2026-05-04 20:44 46.51139 6.05947 17276 ft 396 kts 230°
2026-05-04 20:44 46.49425 6.02813 16733 ft 394 kts 231°
2026-05-04 20:44 46.47729 5.99715 16252 ft 388 kts 231°
2026-05-04 20:45 46.46080 5.96704 16024 ft 374 kts 231°
2026-05-04 20:45 46.44483 5.93793 15673 ft 365 kts 231°
2026-05-04 20:45 46.42915 5.90940 15162 ft 361 kts 231°
2026-05-04 20:45 46.41348 5.88091 14591 ft 359 kts 231°
2026-05-04 20:46 46.39800 5.85278 14105 ft 355 kts 231°
2026-05-04 20:46 46.38264 5.82492 13561 ft 352 kts 231°
2026-05-04 20:46 46.36742 5.79730 12958 ft 350 kts 231°
2026-05-04 20:46 46.35227 5.76983 12372 ft 347 kts 231°
2026-05-04 20:47 46.33724 5.74265 11754 ft 345 kts 231°
2026-05-04 20:47 46.32223 5.71558 11138 ft 344 kts 231°
2026-05-04 20:47 46.30734 5.68870 10723 ft 338 kts 231°
2026-05-04 20:47 46.29290 5.66262 10496 ft 326 kts 231°
2026-05-04 20:48 46.27895 5.63746 10293 ft 314 kts 231°
2026-05-04 20:48 46.26559 5.61339 10185 ft 300 kts 231°
2026-05-04 20:48 46.25279 5.59034 10076 ft 287 kts 231°
2026-05-04 20:48 46.24049 5.56821 9980 ft 278 kts 230°
2026-05-04 20:49 46.22841 5.54653 9932 ft 277 kts 231°
2026-05-04 20:49 46.21639 5.52495 9810 ft 276 kts 231°
2026-05-04 20:49 46.20436 5.50337 9441 ft 275 kts 231°
2026-05-04 20:49 46.19256 5.48221 9110 ft 273 kts 230°
2026-05-04 20:50 46.18069 5.46094 8772 ft 272 kts 230°
2026-05-04 20:50 46.16885 5.43970 8433 ft 270 kts 230°
2026-05-04 20:50 46.15712 5.41871 8094 ft 268 kts 230°
2026-05-04 20:50 46.14541 5.39785 7798 ft 266 kts 230°
2026-05-04 20:51 46.13377 5.37710 7572 ft 266 kts 230°
2026-05-04 20:51 46.12217 5.35638 7339 ft 265 kts 230°
2026-05-04 20:51 46.11054 5.33578 7083 ft 264 kts 228°
2026-05-04 20:51 46.09817 5.31632 6832 ft 263 kts 225°
2026-05-04 20:52 46.08545 5.29753 6599 ft 261 kts 224°
2026-05-04 20:52 46.07272 5.27894 6356 ft 260 kts 224°
2026-05-04 20:52 46.06006 5.26046 6101 ft 259 kts 224°
2026-05-04 20:52 46.04740 5.24198 5842 ft 259 kts 223°
2026-05-04 20:53 46.03479 5.22357 5585 ft 257 kts 223°
2026-05-04 20:53 46.02238 5.20546 5334 ft 251 kts 223°
2026-05-04 20:53 46.01029 5.18780 5152 ft 244 kts 223°
2026-05-04 20:53 45.99870 5.17089 5034 ft 238 kts 223°
2026-05-04 20:54 45.98707 5.15396 4912 ft 238 kts 223°
2026-05-04 20:54 45.97539 5.13697 4792 ft 236 kts 223°
2026-05-04 20:54 45.96408 5.12050 4660 ft 228 kts 223°
2026-05-04 20:54 45.95310 5.10450 4541 ft 220 kts 222°
2026-05-04 20:55 45.94251 5.08912 4398 ft 214 kts 222°
2026-05-04 20:55 45.93119 5.07700 4281 ft 195 kts 200°
2026-05-04 20:55 45.91838 5.07164 4171 ft 190 kts 189°
2026-05-04 20:55 45.90561 5.07092 4000 ft 178 kts 179°
2026-05-04 20:56 45.89356 5.07229 3802 ft 169 kts 177°
2026-05-04 20:56 45.88209 5.07379 3697 ft 164 kts 177°
2026-05-04 20:56 45.87073 5.07524 3576 ft 164 kts 176°
2026-05-04 20:56 45.85938 5.07665 3453 ft 164 kts 177°
2026-05-04 20:57 45.84813 5.07803 3237 ft 165 kts 176°
2026-05-04 20:57 45.83670 5.07944 3006 ft 166 kts 176°
2026-05-04 20:57 45.82523 5.08085 2685 ft 165 kts 176°
2026-05-04 20:57 45.81388 5.08224 2331 ft 162 kts 176°
2026-05-04 20:58 45.80292 5.08359 2057 ft 152 kts 176°
2026-05-04 20:58 45.79302 5.08481 1996 ft 135 kts 176°
2026-05-04 20:58 45.78333 5.08598 2013 ft 147 kts 176°
2026-05-04 20:58 45.77275 5.08724 1717 ft 156 kts 175°
2026-05-04 20:59 45.76198 5.08845 1367 ft 152 kts 175°
2026-05-04 20:59 45.75178 5.08979 1120 ft 142 kts 174°
2026-05-04 20:59 45.74241 5.09100 951 ft 128 kts 174°
2026-05-04 20:59 45.73407 5.09200 801 ft 115 kts 176°
2026-05-04 21:00 45.72734 5.09281 808 ft 77 kts 175°
2026-05-04 21:00 45.72364 5.09327 814 ft 37 kts 175°
2026-05-04 21:00 45.72119 5.09357 818 ft 34 kts 175°
2026-05-04 21:00 45.71922 5.09374 824 ft 26 kts 183°
2026-05-04 21:01 45.71748 5.09320 826 ft 25 kts 200°
2026-05-04 21:01 45.71637 5.09200 819 ft 19 kts 260°
2026-05-04 21:01 45.71626 5.09014 818 ft 19 kts 264°
2026-05-04 21:01 45.71613 5.08822 814 ft 20 kts 265°
2026-05-04 21:02 45.71599 5.08609 809 ft 18 kts 264°
2026-05-04 21:02 45.71519 5.08515 807 ft 15 kts 173°
2026-05-04 21:02 45.71438 5.08524 811 ft 11 kts 175°
2026-05-04 21:02 45.71363 5.08533 811 ft 12 kts 175°
2026-05-04 21:03 45.71267 5.08545 814 ft 16 kts 175°
2026-05-04 21:03 45.71145 5.08585 816 ft 19 kts 142°
2026-05-04 21:03 45.71036 5.08667 819 ft 18 kts 190°
2026-05-04 21:03 45.70900 5.08642 818 ft 22 kts 183°
2026-05-04 21:04 45.70805 5.08633 819 ft 14 kts 184°
2026-05-04 21:04 45.70773 5.08608 817 ft 6 kts 223°
2026-05-04 21:04 45.70742 5.08542 818 ft 6 kts 271°
2026-05-04 21:04 45.70754 5.08513 815 ft 3 kts 307°
2026-05-04 21:05 45.70764 5.08493 818 ft 0 kts 307°